User: anonymous   Login
Location: Newark
(33.6439°N, 114.9881°W)
Time: 21:46:59
(UTC+00:00)
Language:

Tiros 1 - Orbit

View from above orbital plane
View from above orbital plane
View from above satellite
View from above satellite

Ground track
Ground track

The orbit data is extracted from the following two-line orbital elements,

1    29U 60002B   19198.85639324 -.00000170 +00000-0 +57038-5 0  9994
2    29 048.3803 092.3474 0024421 237.6651 122.1896 14.74310534169020
Epoch (UTC): 17 July 2019 20:33:12
Eccentricity: 0.0024421
inclination: 48.3803°
perigee height: 630 km
apogee height: 664 km
right ascension of ascending node: 92.3474°
argument of perigee: 237.6651°
revolutions per day: 14.74310534
mean anomaly at epoch: 122.1896°
orbit number at epoch: 16902

The dashed part of the orbit path shows where the satellite is in the earth's shadow,  

DLR